[[{"header":{"parameterUnit":"m.s-1","parameterCategory":2,"la1":30.2991,"la2":30.254,"lo1":-89.0895,"lo2":-89.0444,"dx":0.0017,"dy":0.0017,"nx":28,"ny":28,"refTime":"2022-11-30T15:00:00:Z","depth":"0","parameterNumber":2,"parameterNumberName":"U-component_of_CURRENTS"},"data":[0,0,0,0,0,0,0,0,0,0,0,0,0,0,0,0,0,0,0,0,0,0,0,0,0,0,0,0,0,0,0,0,0,0,0,0,0,0,0,0,0,0,0,0,0,0,0,0,0,0,0,0,0,0,0,0,0,0,0.3559,0.3561,0,0.3681,0.3682,0.3682,0.3691,0.3691,0.369,0.3689,0.3539,0.3536,0.3533,0,0,0,0,0,0,0,0,0,0,0,0,0,0.3404,0.3405,0.3559,0.3561,0.3563,0.3681,0.3682,0.3683,0.3692,0.3691,0.369,0.3689,0.354,0.3536,0.3532,0,0,0,0,0,0,0,0,0,0,0,0,0,0.3486,0.3406,0.3559,0.3587,0.3591,0.3681,0.3682,0.3683,0.3692,0.3691,0.369,0.3689,0.3542,0.3537,0.3532,0.3522,0,0,0.3517,0.3514,0,0,0,0,0,0,0,0,0.3481,0.3491,0.3581,0.3585,0.359,0.3676,0.3573,0.3618,0.3692,0.3646,0.3689,0.3688,0.3565,0.3558,0.3577,0.3515,0.3509,0.3516,0.3513,0.3511,0.351,0,0,0,0,0,0,0,0.3475,0.3486,0.36,0.3583,0.3589,0.3618,0.3627,0.3582,0.3599,0.365,0.3653,0.3678,0.3565,0.3583,0.3573,0.3507,0.3516,0.3512,0.3509,0.3507,0.3556,0.3561,0,0,0,0,0,0,0.3472,0.3481,0.3596,0.3604,0.354,0.3622,0.3632,0.3644,0.3606,0.3604,0.3679,0.3678,0.3592,0.3579,0.3568,0.3634,0.3511,0.3506,0.3503,0.3552,0.3557,0.3562,0,0,0,0,0,0,0.3468,0.3481,0.3592,0.3551,0.3568,0.3626,0.3639,0.3647,0.3672,0.3632,0.3623,0.3697,0.359,0.3575,0.3595,0.3624,0.3504,0.35,0.3547,0.3554,0.356,0.3713,0,0,0,0,0,0,0.3463,0.3478,0.3484,0.3551,0.3571,0.3665,0.3641,0.365,0.3692,0.3692,0.3644,0.363,0.3588,0.3604,0.3591,0.3615,0.3496,0.3542,0.355,0.3558,0.3703,0.3724,0.3742,0,0,0,0,0,0.3457,0.3481,0.3483,0.3498,0.3577,0.3668,0.3681,0.3713,0.3694,0.3725,0.3725,0.3632,0.3645,0.3605,0.3587,0.361,0.3538,0.3548,0.3557,0.3694,0.372,0.3742,0,0,0,0,0,0,0.3419,0.3487,0.349,0.3532,0.3602,0.3672,0.3714,0.3721,0.3748,0.3743,0.3685,0.3674,0.3708,0.3652,0.3608,0.3659,0.3575,0.3582,0.3685,0.3709,0.3728,0.3696,0.3491,0,0,0,0,0,0.3413,0.3453,0.352,0.3562,0.3598,0.3651,0.3689,0.3714,0.3752,0.3763,0.3734,0.3719,0.3736,0.3717,0.3716,0.3724,0.3694,0.3735,0.3755,0.3771,0.3741,0.3792,0.3813,0.3594,0.3594,0.3594,0,0,0.3424,0.3459,0.3488,0.3558,0.3613,0.3659,0.3671,0.3748,0.3781,0.3736,0.3767,0.3785,0.3763,0.3808,0.3813,0.3756,0.3827,0.3784,0.3798,0.3757,0.3804,0.3825,0.3843,0.3601,0.3599,0.3598,0,0,0.3453,0.3487,0.3522,0.3571,0.3653,0.3691,0.3712,0.3785,0.3818,0.3867,0.3868,0.392,0.3894,0.3921,0.3921,0.4043,0.3946,0.4034,0.4078,0.4131,0.4148,0.4162,0.4179,0.4194,0.4025,0.4026,0.4026,0,0.3449,0.3487,0.3553,0.3586,0.3624,0.3698,0.3733,0.3792,0.386,0.3895,0.3889,0.3958,0.395,0.4018,0.4084,0.408,0.4079,0.3985,0.4154,0.4167,0.4179,0.4192,0.4206,0.4034,0.4033,0.4032,0.4031,0,0.3502,0.3518,0.3556,0.3605,0.3659,0.372,0.3799,0.3859,0.3897,0.3943,0.4037,0.4083,0.4106,0.4146,0.4145,0.4239,0.4205,0.4188,0.4082,0.4209,0.4217,0.4228,0.4046,0.4043,0.4041,0.4039,0,0,0.3494,0.3571,0.3566,0.3581,0.3668,0.3718,0.38,0.3894,0.3937,0.4028,0.4083,0.4192,0.4217,0.4223,0.4253,0.4312,0.4434,0.4285,0.4284,0.4281,0.4529,0.4534,0.4546,0.4449,0.4452,0.4453,0.4508,0,0.3499,0.3537,0.3576,0.3615,0.3651,0.3731,0.3794,0.3889,0.3969,0.4045,0.4149,0.4209,0.4245,0.4271,0.4349,0.4405,0.4467,0.4418,0.442,0.4419,0.4392,0.4561,0.4298,0.4327,0.4519,0.452,0.4522,0,0.3508,0.3531,0.357,0.3613,0.3636,0.3669,0.3775,0.3834,0.3974,0.404,0.4138,0.4201,0.432,0.4328,0.4475,0.444,0.4491,0.4538,0.454,0.4483,0.4446,0.4228,0.4339,0.432,0.4538,0.4537,0.4536,0,0.3459,0.3506,0.3534,0.3556,0.364,0.3673,0.3706,0.3832,0.3898,0.4024,0.4087,0.4217,0.4289,0.4383,0.4506,0.4486,0.4654,0.4627,0.4678,0.4676,0.4416,0.4389,0.4479,0.4728,0.4728,0.4728,0.4728,0,0.3432,0.3425,0.3516,0.3523,0.3554,0.3624,0.368,0.3736,0.3855,0.3934,0.4062,0.4165,0.4313,0.4436,0.4513,0.4645,0.4659,0.4706,0.471,0.447,0.4448,0.4386,0.4368,0.473,0.473,0.4729,0.4729,0,0.3344,0.3405,0.3425,0.3507,0.3531,0.3539,0.3624,0.3671,0.3791,0.3894,0.3935,0.4142,0.4321,0.4464,0.4626,0.466,0.4653,0.4804,0.4507,0.4478,0.45,0.4499,0.4354,0.4225,0.485,0.4851,0.4852,0,0.3299,0.3323,0.3389,0.34,0.3423,0.3471,0.3509,0.3618,0.3675,0.3894,0.3932,0.4158,0.431,0.4555,0.4642,0.4761,0.4692,0.4599,0.4536,0.4498,0.4499,0.4329,0.4216,0.4245,0.424,0.4237,0.4234,0,0.3217,0.3252,0.3273,0.3292,0.332,0.3368,0.3418,0.3463,0.3618,0.3708,0.3853,0.399,0.4274,0.4324,0.4528,0.4568,0.4378,0.4535,0.4551,0.4098,0.3851,0.3726,0.4209,0.4202,0.4205,0.4208,0.4209,0.4211,0.3148,0.3123,0.3163,0.3174,0.3202,0.3227,0.3217,0.3311,0.3373,0.3458,0.3665,0.3784,0.3983,0.4247,0.4269,0.4237,0.4248,0.4142,0.4161,0.4008,0.3829,0.4268,0.4253,0.4256,0.4259,0.4261,0.4263,0,0.3054,0.3026,0.3031,0.3021,0.3008,0.3076,0.3129,0.3113,0.3119,0.3264,0.3337,0.3515,0.3608,0.3806,0.3927,0.3864,0.3608,0.3814,0.3478,0.3402,0.3834,0.3761,0.357,0.357,0.357,0.357,0.357,0.357,0.2969,0.2933,0.2927,0.2851,0.2846,0.2783,0.2787,0.2777,0.2848,0.2893,0.2988,0.314,0.3544,0.3753,0.3769,0.3653,0.3428,0.3239,0.3344,0.3658,0.3687,0.3716,0.3648,0.3436,0.3435,0.2653,0.2648,0.2644]},{"header":{"parameterUnit":"m.s-1","parameterCategory":2,"la1":30.2991,"la2":30.254,"lo1":-89.0895,"lo2":-89.0444,"dx":0.0017,"dy":0.0017,"nx":28,"ny":28,"refTime":"2022-11-30T15:00:00:Z","depth":"0","parameterNumber":3,"parameterNumberName":"V-component_of_CURRENTS"},"data":[0,0,0,0,0,0,0,0,0,0,0,0,0,0,0,0,0,0,0,0,0,0,0,0,0,0,0,0,0,0,0,0,0,0,0,0,0,0,0,0,0,0,0,0,0,0,0,0,0,0,0,0,0,0,0,0,0,0,-0.1277,-0.1278,0,-0.1376,-0.1377,-0.1378,-0.1418,-0.1417,-0.1417,-0.1416,-0.1577,-0.1581,-0.1586,0,0,0,0,0,0,0,0,0,0,0,0,0,-0.1222,-0.1222,-0.1277,-0.1278,-0.1279,-0.1376,-0.1377,-0.1379,-0.1418,-0.1417,-0.1417,-0.1416,-0.1575,-0.158,-0.1586,0,0,0,0,0,0,0,0,0,0,0,0,0,-0.1277,-0.1222,-0.1277,-0.1309,-0.1313,-0.1375,-0.1377,-0.1379,-0.1418,-0.1417,-0.1417,-0.1416,-0.1573,-0.158,-0.1587,-0.1641,0,0,-0.1608,-0.1611,0,0,0,0,0,0,0,0,-0.1274,-0.1279,-0.1303,-0.1307,-0.1311,-0.1383,-0.1417,-0.1469,-0.1418,-0.138,-0.1416,-0.1416,-0.1517,-0.1528,-0.155,-0.1649,-0.1656,-0.1609,-0.1613,-0.1616,-0.1618,0,0,0,0,0,0,0,-0.127,-0.1276,-0.1318,-0.1305,-0.1309,-0.1353,-0.1359,-0.1427,-0.1453,-0.1383,-0.1386,-0.1394,-0.152,-0.1543,-0.1554,-0.1658,-0.1608,-0.1615,-0.1619,-0.1622,-0.1759,-0.1759,0,0,0,0,0,0,-0.125,-0.1272,-0.1315,-0.1321,-0.1289,-0.1354,-0.1361,-0.1362,-0.1451,-0.1463,-0.1395,-0.1396,-0.1531,-0.1546,-0.156,-0.161,-0.1616,-0.1622,-0.1626,-0.176,-0.1759,-0.1759,0,0,0,0,0,0,-0.1248,-0.1252,-0.1311,-0.1298,-0.1308,-0.1354,-0.1355,-0.1364,-0.1386,-0.1459,-0.1472,-0.1408,-0.1531,-0.155,-0.1617,-0.1617,-0.1625,-0.1632,-0.1761,-0.176,-0.1759,-0.1724,0,0,0,0,0,0,-0.1246,-0.1251,-0.1262,-0.1296,-0.1308,-0.1389,-0.1356,-0.1366,-0.1392,-0.1394,-0.1475,-0.1489,-0.1532,-0.1606,-0.1624,-0.1627,-0.1637,-0.1761,-0.176,-0.1759,-0.1726,-0.1722,-0.1719,0,0,0,0,0,-0.1244,-0.1252,-0.1261,-0.1267,-0.1314,-0.1392,-0.1405,-0.1435,-0.1393,-0.1443,-0.1456,-0.1486,-0.1611,-0.1612,-0.1633,-0.1638,-0.1762,-0.1761,-0.1759,-0.1727,-0.1723,-0.1719,0,0,0,0,0,0,-0.1252,-0.1258,-0.1268,-0.1284,-0.1354,-0.1399,-0.1435,-0.1433,-0.148,-0.1481,-0.1503,-0.1521,-0.1573,-0.161,-0.1609,-0.1669,-0.1683,-0.1686,-0.1651,-0.1648,-0.1644,-0.1617,-0.1643,0,0,0,0,0,-0.1254,-0.1242,-0.1299,-0.1316,-0.1351,-0.1388,-0.1418,-0.1453,-0.1489,-0.1508,-0.1532,-0.1559,-0.1585,-0.162,-0.1668,-0.1722,-0.1696,-0.1728,-0.1725,-0.1722,-0.171,-0.1666,-0.1657,-0.1755,-0.1755,-0.1755,0,0,-0.1253,-0.126,-0.1253,-0.1316,-0.136,-0.1377,-0.1407,-0.148,-0.1487,-0.1522,-0.1531,-0.1563,-0.1595,-0.1642,-0.1667,-0.1676,-0.1677,-0.172,-0.1718,-0.1708,-0.1664,-0.1654,-0.1645,-0.1754,-0.1754,-0.1755,0,0,-0.1223,-0.127,-0.1243,-0.1294,-0.1374,-0.141,-0.1423,-0.1483,-0.1525,-0.1569,-0.1555,-0.1578,-0.1643,-0.1647,-0.1656,-0.1664,-0.1658,-0.168,-0.1652,-0.161,-0.1601,-0.1593,-0.1528,-0.1514,-0.1681,-0.1681,-0.1681,0,-0.1209,-0.1188,-0.1265,-0.126,-0.1277,-0.1398,-0.1389,-0.1462,-0.1527,-0.1545,-0.158,-0.1587,-0.1634,-0.1618,-0.1623,-0.1656,-0.1622,-0.1668,-0.1603,-0.1595,-0.1587,-0.1523,-0.1509,-0.1679,-0.1679,-0.1679,-0.1679,0,-0.1172,-0.1147,-0.1155,-0.1152,-0.1205,-0.125,-0.1346,-0.1408,-0.1453,-0.1495,-0.1538,-0.1596,-0.1585,-0.1607,-0.1628,-0.1588,-0.1576,-0.16,-0.161,-0.1575,-0.151,-0.1495,-0.1676,-0.1677,-0.1677,-0.1678,0,0,-0.1101,-0.1108,-0.1101,-0.1057,-0.1156,-0.1176,-0.1239,-0.1311,-0.1293,-0.1426,-0.1379,-0.1471,-0.1507,-0.1515,-0.1542,-0.1528,-0.1454,-0.1545,-0.1544,-0.1474,-0.1333,-0.1341,-0.1325,-0.1466,-0.1464,-0.1462,-0.1301,0,-0.1029,-0.096,-0.1001,-0.0927,-0.0897,-0.1019,-0.1035,-0.1131,-0.1225,-0.1233,-0.136,-0.134,-0.1474,-0.144,-0.1469,-0.1456,-0.1417,-0.1494,-0.1383,-0.1379,-0.1386,-0.131,-0.1248,-0.1102,-0.1287,-0.1284,-0.1283,0,-0.0947,-0.0907,-0.0831,-0.0761,-0.0764,-0.0748,-0.0785,-0.0812,-0.0925,-0.0997,-0.1073,-0.116,-0.1197,-0.128,-0.1298,-0.1342,-0.1327,-0.1327,-0.1321,-0.1331,-0.1361,-0.1172,-0.1068,-0.1285,-0.126,-0.1262,-0.1264,0,-0.0822,-0.0753,-0.0678,-0.0672,-0.066,-0.0642,-0.0632,-0.0729,-0.0727,-0.0807,-0.0791,-0.0931,-0.0913,-0.0998,-0.1105,-0.117,-0.1078,-0.1159,-0.114,-0.1139,-0.1066,-0.1063,-0.1153,-0.1094,-0.1094,-0.1095,-0.1095,0,-0.0699,-0.0603,-0.0603,-0.0553,-0.0444,-0.0483,-0.0396,-0.0436,-0.0458,-0.039,-0.062,-0.0577,-0.0834,-0.0871,-0.0997,-0.1035,-0.0998,-0.1103,-0.1093,-0.1052,-0.105,-0.1222,-0.1358,-0.1089,-0.109,-0.1091,-0.1092,0,-0.0544,-0.0545,-0.0423,-0.0395,-0.037,-0.028,-0.0202,-0.014,-0.0187,-0.0088,-0.0088,-0.0259,-0.033,-0.0566,-0.0644,-0.0827,-0.0979,-0.0877,-0.0817,-0.0806,-0.1076,-0.1211,-0.1251,-0.1344,-0.0859,-0.0859,-0.0858,0,-0.0454,-0.0394,-0.0311,-0.0227,-0.0195,-0.0084,-0.0007,-0.0005,0.0074,0.0126,0.0212,0.0144,0.0108,-0.0095,-0.0406,-0.0612,-0.0833,-0.0687,-0.0829,-0.1059,-0.12,-0.1314,-0.1399,-0.0694,-0.0692,-0.069,-0.0689,0,-0.0287,-0.0277,-0.0199,-0.0056,0.0064,0.0195,0.0326,0.0429,0.047,0.0567,0.0702,0.0696,0.0447,0.0191,-0.0168,-0.0335,-0.0865,-0.0662,-0.0896,-0.1074,-0.1198,-0.1292,-0.0835,-0.0675,-0.0676,-0.0677,-0.0678,-0.0678,-0.0182,-0.0085,-0.0006,0.0149,0.0287,0.047,0.0617,0.075,0.0943,0.1111,0.1094,0.1152,0.0725,0.0204,-0.0095,-0.0656,-0.0717,-0.0845,-0.0976,-0.1062,-0.1208,-0.0728,-0.0584,-0.0585,-0.0585,-0.0586,-0.0587,0,-0.0055,0.0058,0.0205,0.0398,0.0572,0.06,0.083,0.0974,0.1241,0.1391,0.1513,0.1397,0.088,0.0303,-0.045,-0.089,-0.1083,-0.1154,-0.1311,-0.1378,-0.0914,-0.0971,-0.0908,-0.0908,-0.0907,-0.0907,-0.0907,-0.0907,0.0041,0.0207,0.0295,0.0613,0.0744,0.0988,0.1135,0.1338,0.1485,0.1723,0.1794,0.1786,0.1397,-0.0024,-0.1035,-0.1283,-0.1632,-0.1679,-0.1902,-0.1621,-0.1604,-0.1588,-0.1677,-0.1762,-0.1763,-0.2292,-0.2298,-0.2302]}],[{"header":{"parameterUnit":"m.s-1","parameterCategory":2,"la1":30.2991,"la2":30.254,"lo1":-89.0895,"lo2":-89.0444,"dx":0.0017,"dy":0.0017,"nx":28,"ny":28,"refTime":"2022-11-30T15:00:00:Z","depth":"2","parameterNumber":2,"parameterNumberName":"U-component_of_CURRENTS"},"data":[0,0,0,0,0,0,0,0,0,0,0,0,0,0,0,0,0,0,0,0,0,0,0,0,0,0,0,0,0,0,0,0,0,0,0,0,0,0,0,0,0,0,0,0,0,0,0,0,0,0,0,0,0,0,0,0,0,0,0.2913,0.2913,0,0.3005,0.3007,0.3009,0.3115,0.3115,0.3116,0.3117,0.3143,0.3143,0.3143,0,0,0,0,0,0,0,0,0,0,0,0,0,0.2833,0.2834,0.2913,0.2913,0.2913,0.3005,0.3007,0.3009,0.3114,0.3115,0.3116,0.3117,0.3143,0.3143,0.3143,0,0,0,0,0,0,0,0,0,0,0,0,0,0.2899,0.2835,0.2912,0.2971,0.2976,0.3005,0.3007,0.301,0.3114,0.3115,0.3117,0.3118,0.3143,0.3143,0.3143,0.3118,0,0,0.3142,0.3142,0,0,0,0,0,0,0,0,0.2895,0.2903,0.2962,0.2967,0.2973,0.3042,0.2988,0.304,0.3114,0.3071,0.3117,0.3118,0.3096,0.31,0.3128,0.3119,0.312,0.3142,0.3142,0.3142,0.3142,0,0,0,0,0,0,0,0.289,0.2899,0.2958,0.2962,0.2968,0.2993,0.3005,0.2999,0.3081,0.3075,0.308,0.3077,0.31,0.3128,0.3129,0.3121,0.3142,0.3142,0.3142,0.3142,0.3329,0.3334,0,0,0,0,0,0,0.286,0.2895,0.2955,0.296,0.2926,0.2993,0.3007,0.3026,0.3083,0.3091,0.3076,0.3081,0.3128,0.3129,0.313,0.325,0.3142,0.3142,0.3142,0.3324,0.333,0.3336,0,0,0,0,0,0,0.2859,0.2866,0.2951,0.2921,0.2933,0.2992,0.3013,0.3027,0.3098,0.3083,0.3092,0.3137,0.3129,0.313,0.3213,0.3246,0.3142,0.3142,0.3318,0.3326,0.3333,0.3396,0,0,0,0,0,0,0.2856,0.2865,0.2882,0.292,0.2933,0.2985,0.3012,0.3027,0.3086,0.3096,0.3136,0.3138,0.313,0.3214,0.3213,0.3244,0.3142,0.3312,0.3322,0.3331,0.3387,0.3405,0.3419,0,0,0,0,0,0.2854,0.2854,0.2883,0.289,0.295,0.2984,0.2996,0.3046,0.3088,0.3118,0.3193,0.3139,0.3273,0.3218,0.3216,0.3247,0.3307,0.3319,0.333,0.338,0.3401,0.3419,0,0,0,0,0,0,0.2781,0.2865,0.2897,0.2912,0.2956,0.2999,0.3007,0.307,0.3154,0.316,0.3193,0.3201,0.3283,0.3279,0.3218,0.3343,0.3284,0.3295,0.3324,0.3343,0.3359,0.3242,0.3142,0,0,0,0,0,0.278,0.2845,0.2888,0.2906,0.2912,0.2977,0.3003,0.3041,0.3104,0.3145,0.3195,0.3255,0.332,0.3346,0.338,0.3435,0.343,0.3466,0.3482,0.3495,0.3409,0.353,0.3547,0.3373,0.3373,0.3372,0,0,0.2775,0.2808,0.2856,0.2902,0.2926,0.2955,0.2998,0.3024,0.3073,0.3125,0.3221,0.3297,0.3353,0.3433,0.3469,0.3435,0.3555,0.3509,0.3519,0.3423,0.3543,0.3559,0.3573,0.338,0.3379,0.3378,0,0,0.2774,0.2796,0.2857,0.2875,0.2907,0.2938,0.2959,0.3031,0.3082,0.3172,0.3256,0.3362,0.3439,0.3506,0.3544,0.3667,0.3636,0.3707,0.3678,0.3802,0.3814,0.3825,0.387,0.3884,0.3714,0.3715,0.3715,0,0.2787,0.2822,0.287,0.2886,0.2905,0.294,0.2979,0.3014,0.3127,0.3184,0.3197,0.341,0.3455,0.3587,0.3633,0.3687,0.3734,0.3593,0.3814,0.3825,0.3834,0.3878,0.3892,0.3719,0.3718,0.3718,0.3718,0,0.2817,0.2835,0.2835,0.2904,0.2936,0.2945,0.2989,0.3043,0.3108,0.3177,0.3318,0.3415,0.3544,0.3605,0.3632,0.3762,0.3767,0.382,0.3742,0.3854,0.3896,0.3909,0.3725,0.3724,0.3722,0.3721,0,0,0.2907,0.2891,0.2895,0.2918,0.2939,0.2978,0.3014,0.3097,0.3165,0.3244,0.3363,0.3479,0.3548,0.3596,0.3696,0.3768,0.3898,0.3805,0.381,0.3802,0.413,0.4001,0.4004,0.4016,0.4019,0.4021,0.4139,0,0.2939,0.2979,0.2964,0.3008,0.3032,0.3039,0.3089,0.316,0.3229,0.3337,0.3414,0.3559,0.3546,0.3658,0.3717,0.3862,0.3933,0.3855,0.4056,0.4058,0.3895,0.4015,0.37,0.3767,0.4152,0.4154,0.4155,0,0.2976,0.301,0.3049,0.3081,0.3095,0.3136,0.3236,0.3276,0.3372,0.3427,0.3524,0.3611,0.3721,0.3722,0.3899,0.3864,0.3965,0.4042,0.4053,0.3885,0.3954,0.3718,0.3776,0.4178,0.4176,0.4174,0.4173,0,0.3019,0.3062,0.3102,0.3103,0.3145,0.3195,0.3251,0.3341,0.3387,0.3516,0.3597,0.3705,0.383,0.3915,0.4037,0.4007,0.4223,0.4236,0.4198,0.4191,0.3919,0.3882,0.4359,0.4359,0.4358,0.4358,0.4358,0,0.3014,0.304,0.3137,0.3133,0.3222,0.327,0.3348,0.3401,0.3504,0.3572,0.3671,0.3769,0.3896,0.4033,0.4078,0.4155,0.428,0.4152,0.4214,0.394,0.3904,0.4244,0.423,0.4363,0.4362,0.4361,0.436,0,0.2958,0.3001,0.3042,0.3153,0.3202,0.3269,0.337,0.3427,0.3547,0.3644,0.3702,0.387,0.4034,0.4144,0.4332,0.4249,0.433,0.4355,0.3971,0.398,0.4183,0.4171,0.425,0.4246,0.4243,0.4241,0.4239,0,0.2928,0.2935,0.3044,0.3082,0.3115,0.3228,0.3285,0.3413,0.3469,0.3688,0.3735,0.3977,0.4019,0.4194,0.4208,0.4247,0.4386,0.395,0.3795,0.4119,0.4173,0.4166,0.4159,0.3491,0.3483,0.3476,0.3471,0,0.2871,0.2885,0.2908,0.2994,0.3073,0.313,0.325,0.33,0.3445,0.3533,0.3662,0.3726,0.3927,0.38,0.3894,0.3874,0.388,0.3811,0.4333,0.3551,0.3409,0.3461,0.3478,0.3412,0.3418,0.3422,0.3426,0.3428,0.2839,0.2807,0.2843,0.2898,0.2968,0.302,0.3033,0.3131,0.3179,0.3255,0.3436,0.3409,0.3481,0.3414,0.3364,0.337,0.3618,0.3416,0.3435,0.3461,0.3336,0.3196,0.3132,0.3136,0.3139,0.3142,0.3145,0,0.2821,0.2755,0.2771,0.2801,0.2807,0.2907,0.2974,0.2918,0.2895,0.2988,0.3006,0.2779,0.2698,0.284,0.2737,0.2711,0.2677,0.261,0.254,0.2601,0.2655,0.2487,0.2058,0.2054,0.2051,0.2048,0,0,0.2754,0.2729,0.2678,0.2644,0.2671,0.2641,0.2644,0.2554,0.2545,0.2428,0.2389,0.254,0.2676,0.2306,0.2292,0.2152,0.2349,0.2071,0.2949,0.2925,0.2974,0.3136,0.2948,0,0,0,0,0]},{"header":{"parameterUnit":"m.s-1","parameterCategory":2,"la1":30.2991,"la2":30.254,"lo1":-89.0895,"lo2":-89.0444,"dx":0.0017,"dy":0.0017,"nx":28,"ny":28,"refTime":"2022-11-30T15:00:00:Z","depth":"2","parameterNumber":3,"parameterNumberName":"V-component_of_CURRENTS"},"data":[0,0,0,0,0,0,0,0,0,0,0,0,0,0,0,0,0,0,0,0,0,0,0,0,0,0,0,0,0,0,0,0,0,0,0,0,0,0,0,0,0,0,0,0,0,0,0,0,0,0,0,0,0,0,0,0,0,0,-0.0169,-0.017,0,-0.0363,-0.0367,-0.037,-0.0602,-0.0604,-0.0606,-0.0608,-0.0943,-0.095,-0.0957,0,0,0,0,0,0,0,0,0,0,0,0,0,-0.0172,-0.0171,-0.0169,-0.017,-0.0171,-0.0362,-0.0367,-0.0371,-0.0602,-0.0604,-0.0607,-0.0609,-0.0941,-0.0949,-0.0957,0,0,0,0,0,0,0,0,0,0,0,0,0,-0.0264,-0.0171,-0.0169,-0.0297,-0.0309,-0.0362,-0.0367,-0.0372,-0.0601,-0.0605,-0.0608,-0.061,-0.0938,-0.0948,-0.0958,-0.0962,0,0,-0.0991,-0.0995,0,0,0,0,0,0,0,0,-0.0259,-0.0266,-0.0277,-0.0288,-0.0301,-0.0447,-0.049,-0.0571,-0.0601,-0.0508,-0.0608,-0.0612,-0.0777,-0.0801,-0.0852,-0.0978,-0.0992,-0.0991,-0.0998,-0.1002,-0.1005,0,0,0,0,0,0,0,-0.0252,-0.026,-0.0263,-0.0277,-0.0292,-0.0403,-0.042,-0.0508,-0.0639,-0.0516,-0.0529,-0.0523,-0.0787,-0.0842,-0.0862,-0.0997,-0.0991,-0.1001,-0.1007,-0.1011,-0.1313,-0.1314,0,0,0,0,0,0,-0.0181,-0.0252,-0.0256,-0.0267,-0.0268,-0.0398,-0.0418,-0.0411,-0.0635,-0.0666,-0.052,-0.0533,-0.0822,-0.0849,-0.0875,-0.0943,-0.1002,-0.1012,-0.1018,-0.1311,-0.1313,-0.1315,0,0,0,0,0,0,-0.018,-0.0179,-0.0248,-0.0252,-0.0266,-0.0392,-0.0384,-0.0413,-0.0494,-0.0633,-0.0672,-0.0573,-0.0826,-0.086,-0.0998,-0.0956,-0.1017,-0.1026,-0.1309,-0.1312,-0.1314,-0.1048,0,0,0,0,0,0,-0.018,-0.0178,-0.0173,-0.0246,-0.0262,-0.0251,-0.038,-0.0414,-0.0475,-0.0496,-0.0689,-0.0723,-0.0831,-0.0982,-0.1009,-0.0972,-0.1035,-0.1307,-0.131,-0.1313,-0.1055,-0.1041,-0.103,0,0,0,0,0,-0.0179,-0.0124,-0.0171,-0.0172,-0.0242,-0.0247,-0.0267,-0.0381,-0.0474,-0.0477,-0.0656,-0.0718,-0.1022,-0.0991,-0.1022,-0.0987,-0.1305,-0.1309,-0.1313,-0.106,-0.1044,-0.103,0,0,0,0,0,0,-0.0055,-0.0143,-0.0197,-0.0155,-0.0189,-0.0279,-0.0271,-0.0375,-0.0518,-0.0543,-0.0737,-0.078,-0.0878,-0.0994,-0.0956,-0.1098,-0.1174,-0.1184,-0.0972,-0.0958,-0.0945,-0.0803,-0.1043,0,0,0,0,0,-0.0032,-0.0077,-0.0113,-0.0088,-0.0075,-0.0186,-0.0214,-0.0278,-0.0392,-0.0461,-0.0621,-0.0789,-0.0911,-0.0984,-0.1101,-0.1174,-0.1218,-0.1184,-0.1171,-0.1159,-0.1074,-0.1183,-0.1168,-0.1327,-0.1327,-0.1327,0,0,-0.002,-0.003,-0.0083,-0.0076,-0.0107,-0.0096,-0.0214,-0.0203,-0.0238,-0.0468,-0.059,-0.0736,-0.0924,-0.1007,-0.1062,-0.1102,-0.1132,-0.1164,-0.115,-0.1071,-0.1185,-0.1168,-0.1153,-0.133,-0.133,-0.1329,0,0,0.0032,0.0042,0.0009,0.0034,0.0041,-0.0009,-0.0002,-0.0092,-0.0161,-0.0275,-0.0452,-0.0575,-0.0799,-0.0899,-0.0986,-0.0979,-0.1055,-0.1044,-0.0861,-0.0969,-0.0953,-0.094,-0.0916,-0.0904,-0.1045,-0.1044,-0.1044,0,0.0035,0.0051,0.0014,0.0075,0.0092,0.0035,0.0055,0.0016,-0.0139,-0.0181,-0.0279,-0.0557,-0.073,-0.0793,-0.0811,-0.0932,-0.0974,-0.0886,-0.0939,-0.0928,-0.0919,-0.0899,-0.0888,-0.1032,-0.1033,-0.1034,-0.1036,0,0.0097,0.0114,0.0162,0.0158,0.0177,0.0232,0.021,0.0183,0.0074,-0.0004,-0.0088,-0.0291,-0.0466,-0.0536,-0.0678,-0.0693,-0.073,-0.0894,-0.0941,-0.0884,-0.087,-0.0863,-0.1014,-0.1019,-0.1022,-0.1025,0,0,0.0012,0.0136,0.0128,0.017,0.0242,0.0263,0.0291,0.0273,0.0262,0.0174,0.0135,-0.0036,-0.0122,-0.0224,-0.0385,-0.045,-0.0444,-0.0624,-0.0636,-0.0527,-0.0575,-0.059,-0.0585,-0.063,-0.0629,-0.0628,-0.0564,0,0.0027,0.0123,0.0168,0.0237,0.0301,0.0337,0.0349,0.0354,0.0296,0.0261,0.0202,0.0066,-0.0007,-0.0134,-0.016,-0.043,-0.0423,-0.0437,-0.0706,-0.0709,-0.0675,-0.0578,-0.0558,-0.0501,-0.0558,-0.0557,-0.0556,0,0.0066,0.0107,0.0191,0.0289,0.0316,0.0329,0.0369,0.0383,0.0405,0.0357,0.0362,0.0256,0.0206,0.0062,-0.0085,-0.0099,-0.0267,-0.041,-0.0418,-0.0503,-0.0713,-0.0591,-0.0488,-0.0546,-0.0547,-0.0548,-0.0548,0,0.0059,0.0134,0.0192,0.0251,0.0348,0.035,0.0342,0.0374,0.0428,0.0384,0.0373,0.0359,0.0245,0.0129,-0.0119,-0.0154,-0.0278,-0.0421,-0.0504,-0.0505,-0.0567,-0.0575,-0.0473,-0.0473,-0.0473,-0.0473,-0.0474,0,0.0135,0.0171,0.0176,0.0248,0.0273,0.0319,0.0381,0.0365,0.042,0.0519,0.0401,0.0463,0.0227,0.0137,-0.0031,-0.0194,-0.022,-0.0377,-0.0487,-0.0474,-0.0474,-0.0614,-0.0631,-0.0471,-0.0471,-0.0472,-0.0472,0,0.0196,0.0228,0.0306,0.032,0.0323,0.0328,0.0421,0.0485,0.0455,0.0575,0.0545,0.05,0.036,0.0197,-0.0064,-0.0154,-0.0325,-0.0391,-0.0275,-0.037,-0.0461,-0.0466,-0.0407,-0.0407,-0.0407,-0.0407,-0.0407,0,0.0241,0.03,0.0349,0.0387,0.039,0.042,0.0484,0.05,0.0592,0.0654,0.0722,0.0586,0.0617,0.0324,0.0024,-0.0197,-0.0284,-0.0337,-0.0405,-0.0338,-0.0453,-0.0458,-0.0464,-0.0354,-0.0354,-0.0353,-0.0353,0,0.0298,0.0334,0.041,0.0473,0.0514,0.063,0.0676,0.0777,0.085,0.0927,0.1037,0.1041,0.0735,0.0501,0.0098,-0.0056,-0.0294,-0.0334,-0.0351,-0.039,-0.0291,-0.0403,-0.0409,-0.035,-0.035,-0.035,-0.0351,-0.0351,0.0311,0.0385,0.0494,0.0584,0.0662,0.0803,0.0914,0.1023,0.1209,0.1315,0.131,0.1286,0.0943,0.0453,0.0129,-0.026,-0.0241,-0.0358,-0.0359,-0.036,-0.0382,-0.0291,-0.0344,-0.0344,-0.0344,-0.0345,-0.0345,0,0.0314,0.0453,0.0578,0.0717,0.0857,0.0863,0.1063,0.1197,0.1421,0.1477,0.1556,0.1277,0.0972,0.0561,-0.0008,-0.0308,-0.0354,-0.0397,-0.0395,-0.0395,-0.0395,-0.0421,-0.0392,-0.0393,-0.0394,-0.0395,0,0,0.0362,0.0508,0.0647,0.0883,0.0978,0.1163,0.1295,0.1462,0.1557,0.1664,0.1629,0.1519,0.1068,0.0655,0.0221,-0.0096,-0.0173,-0.0152,-0.0078,-0.0023,-0.002,-0.0334,-0.0368,0,0,0,0,0]}],[{"header":{"parameterUnit":"m.s-1","parameterCategory":2,"la1":30.2991,"la2":30.254,"lo1":-89.0895,"lo2":-89.0444,"dx":0.0017,"dy":0.0017,"nx":28,"ny":28,"refTime":"2022-11-30T15:00:00:Z","depth":"4","parameterNumber":2,"parameterNumberName":"U-component_of_CURRENTS"},"data":[0,0,0,0,0,0,0,0,0,0,0,0,0,0,0,0,0,0,0,0,0,0,0,0,0,0,0,0,0,0,0,0,0,0,0,0,0,0,0,0,0,0,0,0,0,0,0,0,0,0,0,0,0,0,0,0,0,0,0.0428,0.0428,0,0.0409,0.0408,0.0408,0.0407,0.0408,0.0408,0.0409,0.0615,0.062,0.0625,0,0,0,0,0,0,0,0,0,0,0,0,0,0.0401,0.0401,0.0428,0.0428,0.0428,0.0409,0.0408,0.0408,0.0407,0.0408,0.0408,0.0409,0.0613,0.0619,0.0625,0,0,0,0,0,0,0,0,0,0,0,0,0,0.0398,0.0401,0.0428,0.0428,0.0428,0.0409,0.0408,0.0408,0.0407,0.0408,0.0409,0.0409,0.0611,0.0619,0.0626,0.0658,0,0,0.0649,0.0652,0,0,0,0,0,0,0,0,0.0398,0.0398,0.0428,0.0428,0.0428,0.0414,0.0474,0.0504,0.0407,0.0412,0.0409,0.041,0.057,0.0581,0.0568,0.0668,0.0676,0.065,0.0654,0.0658,0.066,0,0,0,0,0,0,0,0.0398,0.0399,0.0418,0.0428,0.0428,0.0406,0.0407,0.0478,0.0489,0.0412,0.0412,0.0414,0.0571,0.0561,0.0574,0.0679,0.065,0.0656,0.0661,0.0664,0.1058,0.1064,0,0,0,0,0,0,0.0409,0.0399,0.0418,0.0417,0.0417,0.0407,0.0407,0.0415,0.0483,0.0493,0.0414,0.0414,0.0547,0.0565,0.0582,0.0791,0.0658,0.0665,0.0669,0.1052,0.106,0.1066,0,0,0,0,0,0,0.0408,0.0411,0.0419,0.041,0.041,0.0407,0.0415,0.0414,0.0436,0.0483,0.0497,0.044,0.0549,0.0571,0.0721,0.0793,0.0668,0.0675,0.1045,0.1055,0.1063,0.1104,0,0,0,0,0,0,0.0408,0.0411,0.0427,0.0411,0.0411,0.043,0.0415,0.0414,0.0435,0.0437,0.0511,0.0527,0.0551,0.071,0.0729,0.0801,0.0681,0.1038,0.1049,0.106,0.1095,0.1113,0.1129,0,0,0,0,0,0.0407,0.0422,0.0428,0.0431,0.0431,0.0431,0.043,0.0427,0.0437,0.0449,0.0542,0.0527,0.0795,0.0721,0.0741,0.0817,0.1032,0.1046,0.1059,0.1088,0.111,0.1128,0,0,0,0,0,0,0.0417,0.0423,0.043,0.0447,0.0452,0.0433,0.0441,0.0448,0.0519,0.0548,0.0593,0.0619,0.0775,0.0812,0.073,0.0976,0.0915,0.0933,0.0931,0.0952,0.0968,0.0937,0.0687,0,0,0,0,0,0.0429,0.044,0.0445,0.0458,0.0465,0.0463,0.0467,0.0476,0.0527,0.0554,0.0642,0.0747,0.0839,0.0907,0.0996,0.1126,0.1115,0.12,0.1217,0.123,0.1228,0.1272,0.1289,0.111,0.111,0.111,0,0,0.0429,0.044,0.0442,0.0462,0.0462,0.0483,0.0467,0.049,0.0537,0.0576,0.0719,0.0808,0.089,0.1037,0.1112,0.108,0.1284,0.1247,0.1256,0.1247,0.1287,0.1303,0.1317,0.1119,0.1117,0.1116,0,0,0.0435,0.0455,0.0468,0.0481,0.0506,0.0514,0.0533,0.0579,0.0627,0.0769,0.0814,0.0945,0.1122,0.1174,0.1219,0.1389,0.1365,0.1456,0.1515,0.1558,0.157,0.1581,0.1591,0.1602,0.1468,0.1468,0.1469,0,0.0445,0.0466,0.0471,0.0495,0.0517,0.0537,0.057,0.0611,0.0722,0.0802,0.0842,0.1124,0.117,0.1313,0.1374,0.1415,0.1441,0.141,0.1569,0.1579,0.1589,0.1597,0.1609,0.1472,0.1472,0.1471,0.1471,0,0.0457,0.0487,0.0497,0.054,0.0565,0.0598,0.0654,0.0743,0.084,0.0914,0.1133,0.1238,0.1406,0.1448,0.1456,0.1584,0.1579,0.1567,0.1486,0.1608,0.1611,0.1622,0.1477,0.1476,0.1475,0.1474,0,0,0.0452,0.05,0.0506,0.0548,0.0602,0.0633,0.0725,0.0829,0.0911,0.1102,0.1243,0.1422,0.1521,0.1581,0.1637,0.1669,0.1735,0.1662,0.1663,0.1617,0.1834,0.174,0.1742,0.1762,0.1765,0.1767,0.1805,0,0.0469,0.0513,0.0546,0.0621,0.0652,0.0721,0.0805,0.0914,0.1027,0.1181,0.1335,0.1498,0.156,0.1654,0.1716,0.1751,0.1771,0.1725,0.1772,0.1773,0.1628,0.1754,0.1775,0.1812,0.1815,0.1817,0.1818,0,0.0477,0.0509,0.0572,0.0681,0.0708,0.0782,0.0924,0.1004,0.1176,0.1282,0.1483,0.1595,0.1765,0.1745,0.1904,0.1895,0.187,0.1858,0.1859,0.1758,0.17,0.1676,0.1837,0.1835,0.1834,0.1833,0.1831,0,0.0473,0.0543,0.0604,0.0633,0.0748,0.0843,0.0931,0.1071,0.1181,0.1351,0.1468,0.1684,0.1815,0.1887,0.1939,0.194,0.2022,0.201,0.189,0.1882,0.1923,0.1911,0.2031,0.2031,0.2031,0.203,0.203,0,0.0494,0.0562,0.0621,0.0675,0.081,0.0867,0.1028,0.1141,0.1288,0.1432,0.1557,0.1701,0.1854,0.1944,0.1962,0.1996,0.2069,0.1915,0.1898,0.1947,0.1937,0.1929,0.1917,0.2032,0.2032,0.2031,0.2031,0,0.053,0.0554,0.0658,0.0773,0.0831,0.0945,0.1139,0.1219,0.1349,0.1526,0.1603,0.177,0.1887,0.1966,0.2019,0.2012,0.202,0.196,0.1997,0.1979,0.1841,0.1832,0.1895,0.1892,0.189,0.1888,0.1886,0,0.0548,0.0584,0.0737,0.0813,0.0905,0.1046,0.1134,0.1281,0.136,0.1574,0.1663,0.1798,0.1895,0.1934,0.198,0.1995,0.1942,0.1929,0.1905,0.1856,0.1835,0.1829,0.1823,0.1883,0.1882,0.1881,0.1881,0,0.057,0.0639,0.0714,0.0873,0.0998,0.1109,0.1252,0.1312,0.1449,0.1593,0.1718,0.1777,0.185,0.1901,0.1873,0.1882,0.1967,0.1905,0.191,0.1888,0.1842,0.1822,0.1819,0.1873,0.1874,0.1875,0.1875,0,0.0573,0.0647,0.0732,0.0898,0.1036,0.112,0.1201,0.1289,0.1393,0.161,0.1647,0.1756,0.1858,0.1837,0.1848,0.1833,0.1822,0.1782,0.1793,0.1802,0.1751,0.1678,0.1662,0,0,0,0,0,0.0516,0.06,0.0737,0.0892,0.1028,0.1111,0.1238,0.1278,0.1417,0.1496,0.1574,0.1642,0.1687,0.1728,0.1692,0.1769,0.1788,0.1719,0.1738,0.1829,0.1838,0.1784,0,0,0,0,0,0,0.0493,0.0587,0.0697,0.0821,0.0926,0.1045,0.1115,0.12,0.1243,0.1404,0.1427,0.158,0.1615,0.1698,0.1674,0.1685,0.1674,0.1795,0.1793,0.1824,0.1832,0.1839,0.1787,0,0,0,0,0]},{"header":{"parameterUnit":"m.s-1","parameterCategory":2,"la1":30.2991,"la2":30.254,"lo1":-89.0895,"lo2":-89.0444,"dx":0.0017,"dy":0.0017,"nx":28,"ny":28,"refTime":"2022-11-30T15:00:00:Z","depth":"4","parameterNumber":3,"parameterNumberName":"V-component_of_CURRENTS"},"data":[0,0,0,0,0,0,0,0,0,0,0,0,0,0,0,0,0,0,0,0,0,0,0,0,0,0,0,0,0,0,0,0,0,0,0,0,0,0,0,0,0,0,0,0,0,0,0,0,0,0,0,0,0,0,0,0,0,0,0.0835,0.0835,0,0.0793,0.0792,0.0791,0.0801,0.0802,0.0803,0.0804,0.0833,0.0833,0.0833,0,0,0,0,0,0,0,0,0,0,0,0,0,0.0867,0.0866,0.0835,0.0835,0.0835,0.0793,0.0792,0.0791,0.0801,0.0802,0.0803,0.0805,0.0833,0.0833,0.0833,0,0,0,0,0,0,0,0,0,0,0,0,0,0.0837,0.0866,0.0835,0.0838,0.0838,0.0793,0.0792,0.0791,0.08,0.0802,0.0804,0.0805,0.0834,0.0833,0.0833,0.0794,0,0,0.0831,0.0831,0,0,0,0,0,0,0,0,0.0839,0.0836,0.0838,0.0838,0.0838,0.0808,0.0814,0.0797,0.08,0.081,0.0804,0.0806,0.0833,0.0833,0.0813,0.0795,0.0796,0.0831,0.0831,0.083,0.083,0,0,0,0,0,0,0,0.0841,0.0837,0.0814,0.0837,0.0837,0.0822,0.082,0.081,0.081,0.0809,0.0811,0.0812,0.0833,0.0814,0.0815,0.0797,0.0831,0.0831,0.083,0.083,0.0748,0.0747,0,0,0,0,0,0,0.0856,0.0839,0.0816,0.0813,0.0848,0.082,0.0818,0.0812,0.0808,0.081,0.0811,0.0813,0.0814,0.0815,0.0816,0.0819,0.083,0.083,0.083,0.075,0.0748,0.0746,0,0,0,0,0,0,0.0857,0.0854,0.0817,0.0829,0.0824,0.0819,0.0812,0.081,0.0827,0.081,0.0813,0.0835,0.0815,0.0816,0.0848,0.0819,0.083,0.0829,0.0752,0.075,0.0747,0.0794,0,0,0,0,0,0,0.0857,0.0854,0.0869,0.083,0.0824,0.0816,0.081,0.0808,0.0825,0.0829,0.083,0.0832,0.0817,0.0849,0.0847,0.0818,0.0829,0.0755,0.0751,0.0748,0.0795,0.0793,0.0792,0,0,0,0,0,0.0859,0.0873,0.0869,0.0868,0.084,0.0817,0.0812,0.0811,0.0826,0.0833,0.0847,0.0834,0.0823,0.0849,0.0847,0.0817,0.0757,0.0752,0.0748,0.0795,0.0793,0.0792,0,0,0,0,0,0,0.0892,0.0874,0.087,0.0878,0.0861,0.0821,0.0832,0.083,0.0841,0.0863,0.0847,0.085,0.0841,0.0828,0.0857,0.0774,0.0771,0.0767,0.0807,0.0806,0.0804,0.0823,0.0829,0,0,0,0,0,0.0905,0.0914,0.0886,0.0893,0.0889,0.0865,0.0864,0.0865,0.0862,0.087,0.09,0.0882,0.0809,0.0819,0.0782,0.0779,0.0728,0.074,0.0739,0.0738,0.0747,0.0612,0.06,0.0732,0.0732,0.0732,0,0,0.0922,0.0912,0.0919,0.0902,0.0887,0.0885,0.0869,0.0879,0.0896,0.0872,0.0948,0.0893,0.0803,0.0776,0.0769,0.0779,0.0681,0.0733,0.0733,0.0743,0.0606,0.0593,0.0582,0.0729,0.073,0.073,0,0,0.0946,0.0947,0.0961,0.0951,0.0947,0.0927,0.0941,0.0951,0.0975,0.1018,0.0957,0.0911,0.0905,0.0808,0.0745,0.0715,0.0665,0.0688,0.072,0.0589,0.0577,0.0567,0.0528,0.0513,0.0703,0.0703,0.0703,0,0.0971,0.0979,0.0961,0.0966,0.0967,0.0953,0.0963,0.0969,0.1009,0.1014,0.1065,0.0948,0.09,0.0749,0.0733,0.0712,0.0662,0.0742,0.0589,0.0577,0.0565,0.0527,0.051,0.0705,0.0704,0.0704,0.0704,0,0.0991,0.1012,0.1019,0.1019,0.1011,0.1026,0.102,0.1055,0.1097,0.1095,0.1049,0.0985,0.0912,0.0848,0.079,0.0643,0.0646,0.0593,0.0604,0.0555,0.0518,0.05,0.0707,0.0706,0.0706,0.0705,0,0,0.0999,0.1033,0.1036,0.1051,0.1049,0.1038,0.106,0.1047,0.1045,0.1096,0.1079,0.0946,0.0934,0.0857,0.076,0.0645,0.0529,0.0603,0.0595,0.0586,0.0301,0.0308,0.0289,0.0443,0.0439,0.0436,0.0326,0,0.1023,0.1057,0.1061,0.109,0.1099,0.1089,0.1102,0.109,0.1093,0.1097,0.1003,0.096,0.0926,0.0882,0.0764,0.0576,0.0475,0.0568,0.0332,0.0327,0.0353,0.0264,0.0423,0.0312,0.0307,0.0304,0.0302,0,0.1037,0.1052,0.1099,0.1122,0.1125,0.115,0.1125,0.1144,0.11,0.1107,0.1049,0.0997,0.0867,0.0837,0.0568,0.0634,0.0483,0.0345,0.0336,0.0313,0.0296,0.0355,0.0268,0.0271,0.0273,0.0276,0.0278,0,0.1037,0.1078,0.1122,0.1132,0.1152,0.1177,0.1197,0.116,0.1182,0.1127,0.1127,0.0982,0.0933,0.0724,0.0525,0.0531,0.0219,0.0189,0.0056,0.0059,0.0072,0.0084,-0.004,-0.004,-0.004,-0.0039,-0.0039,0,0.1053,0.1081,0.1144,0.1168,0.1209,0.1218,0.1253,0.1244,0.1241,0.1229,0.1168,0.1103,0.089,0.0715,0.0521,0.0268,0.0232,0.005,0.0002,0.0102,0.0117,0.0063,0.0076,-0.0043,-0.0043,-0.0042,-0.0041,0,0.1043,0.1094,0.1144,0.12,0.1227,0.1265,0.1345,0.1346,0.1358,0.1333,0.1336,0.1202,0.0971,0.0755,0.0395,0.0275,0.001,-0.0091,0.0098,0.0065,-0.0048,-0.0031,-0.0227,-0.0229,-0.023,-0.0231,-0.0231,0,0.1049,0.1084,0.1176,0.1211,0.1257,0.1324,0.1359,0.141,0.1413,0.1362,0.134,0.1159,0.1026,0.0589,0.0344,0.001,-0.0068,-0.0147,-0.016,-0.0055,-0.0082,-0.0063,-0.0045,-0.0233,-0.0233,-0.0234,-0.0234,0,0.1041,0.1095,0.1125,0.122,0.1289,0.1332,0.1403,0.1418,0.1432,0.1452,0.1303,0.1107,0.0839,0.0543,0.0294,0.0036,-0.0055,-0.016,-0.0159,-0.0172,-0.0064,-0.0085,-0.0067,-0.0238,-0.0237,-0.0237,-0.0237,0,0.104,0.1052,0.113,0.1187,0.1276,0.131,0.1351,0.1344,0.1371,0.1334,0.126,0.1015,0.0884,0.055,0.0305,0.0086,0.0017,-0.0042,-0.0049,-0.0048,0.0034,0.0199,0.0048,0,0,0,0,0,0.1027,0.1023,0.1082,0.1146,0.1237,0.1288,0.1347,0.1374,0.1394,0.1285,0.1288,0.1033,0.0683,0.0538,0.0308,0.0269,-0.002,-0.0004,-0.0091,-0.0259,-0.0254,-0.0191,0,0,0,0,0,0,0.0998,0.1057,0.1054,0.1108,0.1144,0.1234,0.1267,0.1278,0.1227,0.122,0.1029,0.0987,0.0641,0.0799,0.0301,0.024,0.0157,-0.0148,-0.0152,-0.0261,-0.0257,-0.0254,-0.0187,0,0,0,0,0]}]]